User: anonymous   Login
Location: Unspecified
(0.0000°N, 0.0000°E)
Time: 07:18:03
(UTC+02:00)
Language:

Cosmos 407 Rocket - Orbit

View from above orbital plane
View from above orbital plane
View from above satellite
View from above satellite

Ground track
Ground track

The orbit data is extracted from the following two-line orbital elements,

1  5175U 71035B   18109.25551703 +.00000049 +00000-0 +24887-4 0  9997
2  5175 074.0501 005.9879 0029416 140.7702 219.5591 14.37896637458685
Epoch (UTC): 19 April 2018 06:07:56
Eccentricity: 0.0029416
inclination: 74.0501°
perigee height: 744 km
apogee height: 786 km
right ascension of ascending node: 5.9879°
argument of perigee: 140.7702°
revolutions per day: 14.37896637
mean anomaly at epoch: 219.5591°
orbit number at epoch: 45868

The dashed part of the orbit path shows where the satellite is in the earth's shadow,  

DLR